Airfield :
LOGIN :

Register | Disclaimer

   EN    FR    IT 

 










Legend :    VFR   Marginal VFR   IFR   Intensive IFR   Very Intensive IFR
Visi :
Ceiling :
>= 8 km
>= 3000ft
5 to 8 km
1000 to 3000 ft
1500m to 5 km
500 to 1000 ft
800 to 1500m
200 to 500 ft
< 800m
< 200 ft
Symbols :   Thunderstorms  Fog  Heavy snow  Heavy precipitations  Wind > 20 kt
SIGMETs :     Misc.  Thunderstorms  Icing  Turbulence  Mountain Waves  Volcanic Ashes







- Airport Elevation : 76 ft
- IATA code : KID


ESMK - Kristianstad

CURRENT METAR :
  • 290350Z 28010KT 9999 OVC010 15/13 Q1010

EXPIRED METARs :
  • 290320Z 28012KT 9999 OVC011 15/14 Q1010
  • 290250Z AUTO 28010KT 9999 OVC011/// 16/14 Q1010
  • 290220Z AUTO 28009KT 9999 OVC011/// 16/14 Q1010
  • 290150Z AUTO 27009KT 9999 OVC011/// 16/14 Q1010
  • 290120Z AUTO 27010KT 9999 OVC013/// 16/14 Q1011

TAF TAF ESMK
Valid from the 29 at 04:00 until the 29 at 12:00 UTC


290322Z 2904/2912 27010KT 9999 BKN012
TEMPO 2904/2910 4000 BR BKN006
BECMG 2910/2912 BKN025
No reported NOTAMs for that airfield.



MET'MAP, your aeronautical weather chart ! - Copyright ORBIFLY December 2007 - Disclaimer

ORBIFLY MET'MAP TEAM :

Programming & Development : Alexandra Zaïnal
Concept & Development : Baudouin d'Aumeries
Co-Development & Prog : Marc-Olivier Méhu
Technical & hardware support : Manuel Goepfert

Contact : metmap@orbifly.com




SOURCES & CREDITS :

   NOAA